Tracking 31028 objects as of 17-Jul-2025
HD Live streaming from Space Station
objects crossing your sky now

STARLINK-30570

Track STARLINK-30570 now!
10-day predictions
STARLINK-30570 is classified as:


NORAD ID: 58095
Int'l Code: 2023-160W
Perigee: 565.4 km
Apogee: 566.9 km
Inclination: 43.0 °
Period: 95.8 minutes
Semi major axis: 6937 km
RCS: Unknown
Launch date: October 18, 2023
Source: United States (US)
Launch site: AIR FORCE EASTERN TEST RANGE (AFETR)
Your satellite tracking list
Your tracking list is empty




NASA's NSSDC Master Catalog

Two Line Element Set (TLE):
1 58095U 23160W   25197.50226061 -.00009191  00000-0 -66575-3 0  9999
2 58095  43.0022 283.2499 0001088 270.0045  90.0672 15.02563418 97399
Source of the keplerian elements: AFSPC